Location: Newark
(50.0336°N, 22.0047°E)
Time: 05:27:13
(UTC+00:00)

ISS - Visible Passes

Search period start: 19 January 2020 00:00
Search period end: 29 January 2020 00:00
Orbit: 415 x 421 km, 51.6° (Epoch: 19 January)

Date Brightness Start Highest point End Pass type
(mag) Time Alt. Az. Time Alt. Az. Time Alt. Az.
20 Jan -1.1 17:26:17 10° S 17:26:47 13° S 17:26:47 13° S visible
21 Jan -1.5 16:39:18 10° SSE 16:40:59 13° SE 16:41:02 13° SE visible
21 Jan -0.5 18:13:54 10° SW 18:14:00 11° SW 18:14:00 11° SW visible
22 Jan -2.3 17:26:03 10° SW 17:28:10 30° SSW 17:28:10 30° SSW visible
23 Jan -2.5 16:38:23 10° SSW 16:41:18 28° SE 16:42:16 24° ESE visible
23 Jan -0.7 18:14:28 10° WSW 18:15:12 16° WSW 18:15:12 16° WSW visible
24 Jan -1.9 15:50:56 10° S 15:53:25 19° SE 15:55:53 10° E visible
24 Jan -3.3 17:26:25 10° WSW 17:29:14 57° SW 17:29:14 57° SW visible
25 Jan -3.5 16:38:28 10° SW 16:41:45 55° SSE 16:43:13 29° E visible
25 Jan -0.8 18:15:11 10° W 18:16:08 18° W 18:16:08 18° W visible
26 Jan -2.9 15:50:36 10° SW 15:53:46 38° SSE 15:56:56 10° E visible
26 Jan -3.5 17:27:03 10° W 17:30:04 65° WNW 17:30:04 65° WNW visible
27 Jan -3.8 16:38:56 10° WSW 16:42:19 88° N 16:43:58 28° ENE visible
27 Jan -0.9 18:15:52 10° W 18:16:54 18° WNW 18:16:54 18° WNW visible
28 Jan -3.6 15:50:52 10° WSW 15:54:14 73° SSE 15:57:36 10° ENE visible
28 Jan -3.4 17:27:44 10° W 17:30:46 59° NW 17:30:46 59° NW visible
